TimePDT,TemperatureF,Dew PointF,Humidity,Sea Level PressureIn,VisibilityMPH,Wind Direction,Wind SpeedMPH,Gust SpeedMPH,PrecipitationIn,Events,Conditions,WindDirDegrees,DateUTC
12:53 AM,28.9,21.0,72,30.02,10.0,SSW,5.8,-,N/A,,Overcast,200,2013-03-22 07:53:00
1:53 AM,27.0,21.0,78,30.04,10.0,SW,4.6,-,N/A,,Scattered Clouds,230,2013-03-22 08:53:00
2:53 AM,28.0,21.0,75,30.03,10.0,SSE,5.8,-,N/A,,Mostly Cloudy,160,2013-03-22 09:53:00
3:53 AM,26.1,21.0,81,30.04,10.0,SSE,4.6,-,N/A,,Scattered Clouds,150,2013-03-22 10:53:00
4:53 AM,26.1,21.9,84,30.06,10.0,SE,3.5,-,N/A,,Mostly Cloudy,140,2013-03-22 11:53:00
5:53 AM,25.0,21.0,85,30.08,10.0,South,4.6,-,N/A,,Mostly Cloudy,170,2013-03-22 12:53:00
6:53 AM,24.1,21.0,88,30.11,10.0,SSE,5.8,-,N/A,,Mostly Cloudy,160,2013-03-22 13:53:00
7:24 AM,24.8,21.2,86,30.04,5.0,SSE,10.4,-,0.00,Snow,Light Snow,160,2013-03-22 14:24:00
7:30 AM,24.8,21.2,86,30.04,6.0,South,8.1,-,0.00,Snow,Light Snow,170,2013-03-22 14:30:00
7:53 AM,24.1,21.9,91,30.12,8.0,SSE,8.1,-,0.00,,Mostly Cloudy,150,2013-03-22 14:53:00
8:17 AM,24.8,21.2,86,30.06,1.0,South,6.9,-,N/A,Fog,Patches of Fog,170,2013-03-22 15:17:00
8:53 AM,25.0,23.0,92,30.14,1.0,South,6.9,-,N/A,Fog,Patches of Fog,170,2013-03-22 15:53:00
9:43 AM,26.6,24.8,93,30.07,10.0,South,6.9,-,N/A,,Mostly Cloudy,180,2013-03-22 16:43:00
9:53 AM,28.0,24.1,85,30.15,10.0,South,5.8,-,N/A,,Mostly Cloudy,170,2013-03-22 16:53:00
10:53 AM,33.1,24.1,70,30.15,10.0,Calm,Calm,-,N/A,,Scattered Clouds,0,2013-03-22 17:53:00
11:53 AM,35.1,23.0,61,30.15,10.0,Calm,Calm,-,N/A,,Scattered Clouds,0,2013-03-22 18:53:00
12:53 PM,37.9,21.9,53,30.15,10.0,Variable,6.9,-,N/A,,Mostly Cloudy,0,2013-03-22 19:53:00
1:53 PM,39.9,19.9,45,30.14,10.0,Variable,4.6,-,N/A,,Mostly Cloudy,0,2013-03-22 20:53:00
2:53 PM,39.0,17.1,41,30.14,10.0,Variable,4.6,16.1,N/A,,Mostly Cloudy,0,2013-03-22 21:53:00
3:53 PM,37.9,17.1,43,30.16,10.0,WNW,18.4,-,N/A,,Mostly Cloudy,290,2013-03-22 22:53:00
4:53 PM,39.0,16.0,39,30.17,10.0,West,10.4,-,N/A,,Mostly Cloudy,260,2013-03-22 23:53:00
5:53 PM,37.9,18.0,45,30.18,10.0,West,10.4,-,N/A,,Mostly Cloudy,270,2013-03-23 00:53:00
6:53 PM,37.0,16.0,42,30.20,10.0,NW,4.6,-,N/A,,Mostly Cloudy,320,2013-03-23 01:53:00
7:53 PM,34.0,19.0,54,30.22,10.0,WSW,5.8,-,N/A,,Mostly Cloudy,240,2013-03-23 02:53:00
8:53 PM,32.0,21.0,64,30.24,10.0,SW,8.1,-,N/A,,Mostly Cloudy,220,2013-03-23 03:53:00
9:53 PM,30.0,21.9,72,30.25,10.0,SW,8.1,-,N/A,,Scattered Clouds,230,2013-03-23 04:53:00
10:53 PM,28.9,21.0,72,30.26,10.0,SW,6.9,-,N/A,,Clear,230,2013-03-23 05:53:00
11:53 PM,28.9,19.9,69,30.26,10.0,SSW,4.6,-,N/A,,Clear,210,2013-03-23 06:53:00